Location: Sihaung
(22.8641°N, 94.0549°E)
Time: 01:41:07
(UTC+00:00)

Cosmos 909 Rocket - Pass Details

Date: 03 March 2021
Orbit: 990 x 2089 km, 65.9° (Epoch: 12 April)

Event Time Altitude Azimuth Distance (km) Brightness Sun altitude
Exits shadow 22:29:31 16° 214° (SW) 2,785 6.0 -22.3°
Maximum altitude 22:35:40 66° 294° (WNW) 1,199 4.2 -20.9°
Drops below altitude 10° 22:42:04 10° 16° (NNE) 2,795 6.6 -19.4°
Sets 22:44:32 0° 19° (NNE) 3,712 7.3 -18.8°
